User: anonymous   Login
Location: Norwich
(52.6280°N, 1.3030°E)
Time: 18:33:47
(UTC+01:00)
Language:

APEX - Orbit

View from above orbital plane
View from above orbital plane
View from above satellite
View from above satellite

Ground track
Ground track

The orbit data is extracted from the following two-line orbital elements,

1 23191U 94046A   17294.12771813  .00007599  00000-0  25834-3 0  9997
2 23191  69.9209 287.5376 0592167  70.5408 295.8700 14.39992052134671
Epoch (UTC): 21 October 2017 03:03:54
Eccentricity: 0.0592167
inclination: 69.9209°
perigee height: 336 km
apogee height: 1181 km
right ascension of ascending node: 287.5376°
argument of perigee: 70.5408°
revolutions per day: 14.39992052
mean anomaly at epoch: 295.8700°
orbit number at epoch: 13467

The dashed part of the orbit path shows where the satellite is in the earth's shadow,  

DLR